When you browse on this site, cookies collect data to enhance your experience and personalize the content and advertising you see.
Visit our Privacy Policy to learn more. By continuing to use the site, you agree to this use of cookies and data.
  • In Switzerland
  • List of Countries
  • For 7 days
  • Water Temperature
  • Satellite Maps
  • Weather Map
  • Weather Widgets
  • user-avatar
    Login

    Hourly Weather Maracaibo

    Today, 23 July, Tuesday

    Time Temperature Precipitation Wind Pressure Humidity
    00:00 +29°C° 0 mm 4 mps 753 mmHg 76%
    01:00 +29°C° 0 mm 3 mps 753 mmHg 77%
    02:00 +28°C° 0 mm 3 mps 752 mmHg 78%
    03:00 +28°C° 0 mm 2 mps 752 mmHg 79%
    04:00 +28°C° 0 mm 2 mps 752 mmHg 80%
    05:00 +28°C° 0 mm 2 mps 752 mmHg 79%
    06:00 +29°C° 0 mm 2 mps 753 mmHg 78%
    07:00 +29°C° 0 mm 2 mps 753 mmHg 77%
    08:00 +31°C° 0.1 mm 2 mps 753 mmHg 70%
    09:00 +32°C° 0.1 mm 2 mps 753 mmHg 63%
    10:00 +35°C° 0.1 mm 2 mps 753 mmHg 56%
    11:00 +36°C° 0 mm 2 mps 753 mmHg 53%
    12:00 +36°C° 0 mm 2 mps 752 mmHg 49%
    13:00 +37°C° 0 mm 2 mps 752 mmHg 46%
    14:00 +37°C° 0 mm 2 mps 751 mmHg 46%
    15:00 +37°C° 0 mm 2 mps 751 mmHg 46%
    16:00 +37°C° 0 mm 2 mps 750 mmHg 47%
    17:00 +35°C° 0.1 mm 3 mps 751 mmHg 54%
    18:00 +33°C° 0.1 mm 3 mps 751 mmHg 61%
    19:00 +30°C° 0.1 mm 4 mps 752 mmHg 69%
    20:00 +30°C° 0 mm 4 mps 752 mmHg 70%
    21:00 +30°C° 0 mm 4 mps 753 mmHg 72%
    22:00 +29°C° 0 mm 4 mps 754 mmHg 73%
    23:00 +29°C° 0 mm 4 mps 753 mmHg 74%

    Tomorrow, 24 July, Wednesday

    Time Temperature Precipitation Wind Pressure Humidity
    00:00 +29°C° 0 mm 3 mps 753 mmHg 76%
    01:00 +28°C° 0 mm 3 mps 753 mmHg 77%
    02:00 +28°C° 0 mm 2 mps 753 mmHg 77%
    03:00 +28°C° 0 mm 2 mps 753 mmHg 78%
    04:00 +27°C° 0 mm 1 mps 753 mmHg 79%
    05:00 +28°C° 0.1 mm 1 mps 753 mmHg 77%
    06:00 +28°C° 0.1 mm 2 mps 753 mmHg 74%
    07:00 +29°C° 0.1 mm 2 mps 754 mmHg 72%
    08:00 +31°C° 0 mm 2 mps 754 mmHg 65%
    09:00 +34°C° 0 mm 2 mps 754 mmHg 58%
    10:00 +35°C° 0 mm 1 mps 754 mmHg 51%
    11:00 +36°C° 0.1 mm 2 mps 753 mmHg 48%
    12:00 +37°C° 0.1 mm 2 mps 752 mmHg 45%
    13:00 +37°C° 0.1 mm 3 mps 752 mmHg 42%
    14:00 +37°C° 0 mm 4 mps 751 mmHg 44%
    15:00 +36°C° 0 mm 4 mps 751 mmHg 46%
    16:00 +36°C° 0 mm 5 mps 750 mmHg 48%
    17:00 +34°C° 0 mm 5 mps 751 mmHg 53%
    18:00 +33°C° 0 mm 5 mps 751 mmHg 58%
    19:00 +32°C° 0 mm 5 mps 752 mmHg 63%
    20:00 +32°C° 0 mm 5 mps 752 mmHg 65%
    21:00 +30°C° 0 mm 4 mps 753 mmHg 67%
    22:00 +30°C° 0 mm 4 mps 754 mmHg 69%
    23:00 +29°C° 0 mm 3 mps 753 mmHg 71%

    Day after tomorrow, 25 July, Thursday

    Time Temperature Precipitation Wind Pressure Humidity
    00:00 +29°C° 0 mm 3 mps 753 mmHg 73%
    01:00 +28°C° 0 mm 3 mps 752 mmHg 74%
    02:00 +28°C° 0 mm 3 mps 752 mmHg 75%
    03:00 +28°C° 0 mm 3 mps 752 mmHg 75%
    04:00 +27°C° 0 mm 2 mps 752 mmHg 76%
    05:00 +28°C° 0 mm 2 mps 753 mmHg 73%
    06:00 +28°C° 0 mm 2 mps 753 mmHg 70%
    07:00 +29°C° 0 mm 2 mps 753 mmHg 67%
    08:00 +31°C° 0 mm 2 mps 753 mmHg 60%
    09:00 +32°C° 0 mm 2 mps 754 mmHg 54%
    10:00 +35°C° 0 mm 2 mps 754 mmHg 47%
    11:00 +36°C° 0 mm 2 mps 753 mmHg 46%
    12:00 +36°C° 0 mm 3 mps 752 mmHg 45%
    13:00 +36°C° 0 mm 3 mps 752 mmHg 44%
    14:00 +36°C° 0 mm 4 mps 751 mmHg 46%
    15:00 +35°C° 0 mm 5 mps 751 mmHg 48%
    16:00 +35°C° 0 mm 6 mps 750 mmHg 49%
    17:00 +34°C° 0 mm 5 mps 751 mmHg 55%
    18:00 +32°C° 0 mm 5 mps 751 mmHg 61%
    19:00 +30°C° 0 mm 5 mps 752 mmHg 67%
    20:00 +29°C° 0 mm 5 mps 752 mmHg 69%
    21:00 +29°C° 0 mm 5 mps 753 mmHg 71%
    22:00 +29°C° 0 mm 6 mps 754 mmHg 73%
    23:00 +29°C° 0 mm 5 mps 753 mmHg 74%

    26 July, Friday

    Time Temperature Precipitation Wind Pressure Humidity
    00:00 +28°C° 0 mm 4 mps 753 mmHg 75%
    01:00 +28°C° 0 mm 4 mps 752 mmHg 76%
    02:00 +28°C° 0 mm 3 mps 752 mmHg 76%
    03:00 +27°C° 0 mm 3 mps 752 mmHg 77%
    04:00 +27°C° 0 mm 2 mps 752 mmHg 78%
    05:00 +28°C° 0.1 mm 2 mps 753 mmHg 75%
    06:00 +28°C° 0.1 mm 2 mps 753 mmHg 72%
    07:00 +29°C° 0.1 mm 2 mps 753 mmHg 70%
    08:00 +31°C° 0 mm 2 mps 753 mmHg 63%
    09:00 +34°C° 0 mm 2 mps 753 mmHg 56%
    10:00 +35°C° 0 mm 2 mps 754 mmHg 50%
    11:00 +36°C° 0.1 mm 2 mps 753 mmHg 48%
    12:00 +36°C° 0.1 mm 3 mps 752 mmHg 47%
    13:00 +37°C° 0.1 mm 3 mps 752 mmHg 45%
    14:00 +36°C° 0.1 mm 3 mps 751 mmHg 46%
    15:00 +36°C° 0.1 mm 3 mps 751 mmHg 47%
    16:00 +36°C° 0.1 mm 4 mps 751 mmHg 48%
    17:00 +34°C° 0.2 mm 4 mps 751 mmHg 55%
    18:00 +33°C° 0.2 mm 4 mps 752 mmHg 61%
    19:00 +30°C° 0.2 mm 4 mps 752 mmHg 67%
    20:00 +30°C° 0.1 mm 4 mps 753 mmHg 69%
    21:00 +29°C° 0.1 mm 3 mps 754 mmHg 71%
    22:00 +29°C° 0.1 mm 3 mps 754 mmHg 73%
    23:00 +29°C° 0 mm 2 mps 754 mmHg 74%

    27 July, Saturday

    Time Temperature Precipitation Wind Pressure Humidity
    00:00 +29°C° 0 mm 2 mps 753 mmHg 74%
    01:00 +29°C° 0 mm 2 mps 753 mmHg 74%
    02:00 +29°C° 0 mm 2 mps 753 mmHg 73%
    03:00 +28°C° 0 mm 2 mps 753 mmHg 72%
    04:00 +28°C° 0 mm 3 mps 753 mmHg 71%
    05:00 +28°C° 0 mm 2 mps 753 mmHg 70%
    06:00 +29°C° 0 mm 2 mps 754 mmHg 68%
    07:00 +29°C° 0 mm 2 mps 754 mmHg 67%
    08:00 +31°C° 0 mm 3 mps 754 mmHg 60%
    09:00 +34°C° 0 mm 3 mps 755 mmHg 53%
    10:00 +35°C° 0 mm 3 mps 755 mmHg 47%
    11:00 +35°C° 0 mm 3 mps 754 mmHg 47%
    12:00 +36°C° 0 mm 3 mps 753 mmHg 47%
    13:00 +36°C° 0 mm 4 mps 753 mmHg 47%
    14:00 +35°C° 0.1 mm 4 mps 752 mmHg 49%
    15:00 +35°C° 0.1 mm 5 mps 752 mmHg 51%
    16:00 +34°C° 0.1 mm 5 mps 751 mmHg 52%
    17:00 +33°C° 0.1 mm 4 mps 752 mmHg 57%
    18:00 +32°C° 0.1 mm 4 mps 753 mmHg 61%
    19:00 +31°C° 0.1 mm 3 mps 753 mmHg 65%
    20:00 +30°C° 0.2 mm 3 mps 754 mmHg 67%
    21:00 +30°C° 0.2 mm 3 mps 754 mmHg 70%
    22:00 +29°C° 0.2 mm 2 mps 755 mmHg 72%
    23:00 +29°C° 0.1 mm 2 mps 754 mmHg 71%

    28 July, Sunday

    Time Temperature Precipitation Wind Pressure Humidity
    00:00 +29°C° 0.1 mm 2 mps 754 mmHg 71%
    01:00 +29°C° 0.1 mm 1 mps 754 mmHg 71%
    02:00 +29°C° 0.3 mm 1 mps 754 mmHg 72%
    03:00 +28°C° 0.3 mm 1 mps 754 mmHg 73%
    04:00 +28°C° 0.3 mm 2 mps 753 mmHg 74%
    05:00 +28°C° 0.1 mm 2 mps 754 mmHg 72%
    06:00 +29°C° 0.1 mm 2 mps 754 mmHg 70%
    07:00 +29°C° 0.1 mm 2 mps 754 mmHg 68%
    08:00 +30°C° 0 mm 1 mps 754 mmHg 64%
    09:00 +31°C° 0 mm 1 mps 754 mmHg 60%
    10:00 +32°C° 0 mm 1 mps 754 mmHg 56%
    11:00 +34°C° 0 mm 2 mps 754 mmHg 53%
    12:00 +35°C° 0 mm 2 mps 753 mmHg 50%
    13:00 +36°C° 0 mm 2 mps 752 mmHg 47%
    14:00 +35°C° 0.1 mm 3 mps 752 mmHg 48%
    15:00 +35°C° 0.1 mm 4 mps 751 mmHg 49%
    16:00 +35°C° 0.1 mm 4 mps 751 mmHg 50%
    17:00 +34°C° 0.1 mm 4 mps 751 mmHg 56%
    18:00 +32°C° 0.1 mm 4 mps 752 mmHg 62%
    19:00 +30°C° 0.1 mm 3 mps 752 mmHg 67%
    20:00 +29°C° 0 mm 3 mps 752 mmHg 69%
    21:00 +29°C° 0 mm 3 mps 753 mmHg 71%
    22:00 +29°C° 0 mm 3 mps 753 mmHg 73%
    23:00 +28°C° 0 mm 2 mps 752 mmHg 74%
    Show more